Regional Weather Roundup
Issued by NWS Glasgow, MT

Home | Current Version | Previous Version | Text Only | Print | Product List | Glossary On
Versions: 1 2 3 4 5 6 7 8 9 10 11 12 13 14 15 16 17 18 19 20 21 22 23 24 25 26 27
000
ASUS45 KGGW 311815
RWRGGW
HOURLY REGIONAL WEATHER ROUNDUP FOR NORTHEAST MONTANA
NATIONAL WEATHER SERVICE GLASGOW MONTANA
1200 PM MDT TUE MAY 31 2016

NOTE: "FAIR" INDICATES FEW OR NO CLOUDS BELOW 12,000 FEET WITH NO
SIGNIFICANT WEATHER AND/OR OBSTRUCTIONS TO VISISBILITY.

NORTHEAST MONTANA


CITY           SKY/WX    TMP DP  RH WIND       PRES   REMARKS
GLASGOW        CLOUDY    57  48  72 N22G31    30.00R
6HR MIN TEMP:  51; 6HR MAX TEMP:  57; 6HR PCP:  0.01;

PLENTYWOOD       N/A     54  51  90 N20G31      N/A
WOLF POINT     CLOUDY    59  50  72 N23G31    29.94R
JORDAN           N/A     54  50  86 NW20G32   30.03R
WINNETT          N/A     53  42  66 W22G33      N/A
SIDNEY         LGT RAIN  54  50  86 N25G33    29.83R
GLENDIVE       CLOUDY    52  48  87 N20G31    29.92R
MALTA            N/A     63  47  55 N14         N/A
SCOBEY           N/A     55  42  61 N25G32    29.91S
OPHEIM           N/A     52  45  76 N21       29.85S

FORT PECK REPORTS


CITY           SKY/WX    TMP DP  RH WIND       PRES   REMARKS
FORT PECK        N/A     55  52  89 NW22        N/A
THE PINES        N/A     53  48  83 N12G24      N/A

SOUTHEAST MONTANA


CITY           SKY/WX    TMP DP  RH WIND       PRES   REMARKS
BILLINGS       CLOUDY    58  38  47 N25G33    30.16S
MILES CITY     LGT RAIN  52  50  93 NW23G31   30.00R
BAKER          LGT RAIN  51  32  48 NW25G36   29.88R
LIVINGSTON     SUNNY     58  33  39 NW14G21   30.22F

CENTRAL MONTANA


CITY           SKY/WX    TMP DP  RH WIND       PRES   REMARKS
HAVRE          CLOUDY    55  47  74 NW15      30.16F
LEWISTOWN      CLOUDY    46  41  82 NW17      30.22R
GREAT FALLS    PTSUNNY   56  36  47 N8        30.24F
CUT BANK       PTSUNNY   57  35  43 NW15      30.23S
HELENA         CLOUDY    56  35  45 MISG      30.24F
BUTTE          CLOUDY    53  30  41 E10       30.24F
BOZEMAN        MOSUNNY   57  36  45 VRB3      30.25F

WESTERN MONTANA


CITY           SKY/WX    TMP DP  RH WIND       PRES   REMARKS
MISSOULA       SUNNY     64  34  32 VRB3      30.18F
KALISPELL      NOT AVBL

NORTH DAKOTA


CITY           SKY/WX    TMP DP  RH WIND       PRES   REMARKS
WILLISTON      LGT RAIN  53  49  86 N25G45    29.77R
DICKINSON      LGT RAIN  50  47  89 NW26G39   29.68R
MINOT          PTSUNNY   65  48  54 SW12G17   29.60F
BISMARCK       LGT RAIN  57  50  77 W18G30    29.69F

SOUTHERN SASKATCHEWAN


CITY           SKY/WX    TMP DP  RH WIND       PRES   REMARKS
REGINA         CLOUDY    54  48  82 N20G28    29.94R
MOOSE JAW      PTSUNNY   59  50  72 N20G25    29.98R
ESTEVAN        SHOWER    54  52  94 N24G35    29.78R
SWIFT CURRENT  PTSUNNY   55  50  82 NW24G31   30.04S





USA.gov is the U.S. government's official web portal to all federal, state and local government web resources and services.